| time (UTC) | temp F | wind direction | speed MPH | gust MPH | rain 1hr in | rain 24hr in | rain mn in | humidity % | barometer mb |
| 20260507014559 | 50 | 0 | 0.0 | 3.0 | 0.00 | 0.41 | 0.23 | 71 | 1014.4 |
| 20260507014056 | 50 | 0 | 0.0 | 3.0 | 0.00 | 0.41 | 0.23 | 71 | 1014.3 |
| 20260507013559 | 50 | 338 | 0.0 | 4.0 | 0.00 | 0.41 | 0.23 | 70 | 1014.3 |
| 20260507013118 | 50 | 325 | 0.0 | 4.0 | 0.00 | 0.41 | 0.23 | 70 | 1014.2 |
| 20260507012556 | 50 | 324 | 1.0 | 3.0 | 0.00 | 0.41 | 0.23 | 70 | 1014.2 |
| 20260507012059 | 50 | 0 | 0.0 | 2.0 | 0.00 | 0.41 | 0.23 | 71 | 1014.4 |
| 20260507011609 | 50 | 0 | 0.0 | 2.0 | 0.00 | 0.41 | 0.23 | 71 | 1014.3 |
| 20260507011102 | 51 | 0 | 0.0 | 0.0 | 0.00 | 0.41 | 0.23 | 71 | 1014.2 |
| 20260507010603 | 51 | 0 | 0.0 | 0.0 | 0.00 | 0.41 | 0.23 | 71 | 1014.0 |
| 20260507010108 | 51 | 0 | 0.0 | 0.0 | 0.00 | 0.41 | 0.23 | 70 | 1014.1 |
| 20260507005600 | 51 | 0 | 0.0 | 0.0 | 0.00 | 0.45 | 0.23 | 70 | 1014.0 |
| 20260507005105 | 51 | 0 | 0.0 | 1.0 | 0.00 | 0.45 | 0.23 | 70 | 1014.0 |
| 20260507004601 | 51 | 0 | 0.0 | 1.0 | 0.00 | 0.45 | 0.23 | 70 | 1014.0 |
| 20260507004059 | 51 | 0 | 0.0 | 1.0 | 0.00 | 0.45 | 0.23 | 70 | 1013.7 |
| 20260507003604 | 51 | 0 | 0.0 | 2.0 | 0.00 | 0.45 | 0.23 | 69 | 1013.6 |
| 20260507003059 | 52 | 0 | 0.0 | 3.0 | 0.00 | 0.45 | 0.23 | 69 | 1013.6 |
| 20260507002600 | 52 | 0 | 0.0 | 3.0 | 0.00 | 0.45 | 0.23 | 68 | 1013.8 |
| 20260507002059 | 52 | 306 | 1.0 | 5.0 | 0.00 | 0.45 | 0.23 | 67 | 1013.6 |
| 20260507001558 | 52 | 0 | 1.0 | 5.0 | 0.00 | 0.45 | 0.23 | 66 | 1013.4 |
| 20260507001058 | 52 | 327 | 2.0 | 4.0 | 0.00 | 0.45 | 0.23 | 64 | 1013.5 |
| 20260507000600 | 52 | 325 | 2.0 | 5.0 | 0.00 | 0.45 | 0.23 | 64 | 1013.5 |
| 20260507000059 | 53 | 347 | 2.0 | 5.0 | 0.00 | 0.45 | 0.23 | 64 | 1013.4 |
| 20260506235601 | 53 | 0 | 2.0 | 5.0 | 0.00 | 0.48 | 0.23 | 64 | 1013.3 |
| 20260506235105 | 53 | 316 | 1.0 | 8.0 | 0.00 | 0.48 | 0.23 | 64 | 1013.3 |
| 20260506234558 | 53 | 327 | 2.0 | 8.0 | 0.00 | 0.48 | 0.23 | 63 | 1013.3 |
| 20260506234101 | 53 | 337 | 2.0 | 9.0 | 0.00 | 0.48 | 0.23 | 63 | 1013.2 |
| 20260506233600 | 53 | 321 | 3.0 | 9.0 | 0.00 | 0.48 | 0.23 | 63 | 1013.4 |
| 20260506233113 | 54 | 335 | 4.0 | 9.0 | 0.00 | 0.48 | 0.23 | 62 | 1013.2 |
| 20260506232602 | 54 | 347 | 4.0 | 9.0 | 0.00 | 0.48 | 0.23 | 62 | 1013.4 |
| 20260506232059 | 53 | 336 | 4.0 | 10.0 | 0.00 | 0.48 | 0.23 | 62 | 1013.3 |
| 20260506231618 | 53 | 341 | 5.0 | 10.0 | 0.00 | 0.48 | 0.23 | 62 | 1013.4 |
| 20260506231100 | 53 | 341 | 4.0 | 9.0 | 0.00 | 0.48 | 0.23 | 62 | 1013.4 |
| 20260506230559 | 53 | 312 | 4.0 | 9.0 | 0.00 | 0.48 | 0.23 | 62 | 1013.5 |
| 20260506230105 | 53 | 334 | 3.0 | 8.0 | 0.00 | 0.48 | 0.23 | 62 | 1013.6 |
| 20260506225603 | 54 | 319 | 3.0 | 8.0 | 0.00 | 0.52 | 0.23 | 62 | 1013.7 |
| 20260506225100 | 54 | 314 | 3.0 | 10.0 | 0.00 | 0.52 | 0.23 | 61 | 1013.6 |
| 20260506224600 | 54 | 311 | 4.0 | 11.0 | 0.00 | 0.52 | 0.23 | 62 | 1013.7 |
| 20260506224059 | 54 | 331 | 5.0 | 11.0 | 0.00 | 0.52 | 0.23 | 62 | 1013.7 |
| 20260506223600 | 54 | 322 | 5.0 | 11.0 | 0.00 | 0.52 | 0.23 | 62 | 1013.7 |
| 20260506223057 | 54 | 302 | 3.0 | 9.0 | 0.00 | 0.52 | 0.23 | 63 | 1013.6 |
| 20260506222600 | 54 | 321 | 4.0 | 9.0 | 0.00 | 0.52 | 0.23 | 62 | 1013.8 |
| 20260506222100 | 54 | 325 | 4.0 | 11.0 | 0.00 | 0.52 | 0.23 | 62 | 1013.7 |
| 20260506221601 | 54 | 323 | 4.0 | 11.0 | 0.00 | 0.52 | 0.23 | 61 | 1013.8 |
| 20260506221100 | 54 | 323 | 4.0 | 11.0 | 0.00 | 0.52 | 0.23 | 61 | 1013.9 |
| 20260506220602 | 54 | 327 | 4.0 | 9.0 | 0.00 | 0.52 | 0.23 | 61 | 1013.9 |
| 20260506220101 | 54 | 313 | 3.0 | 9.0 | 0.00 | 0.52 | 0.23 | 62 | 1013.7 |
| 20260506215602 | 54 | 336 | 3.0 | 13.0 | 0.00 | 0.61 | 0.23 | 61 | 1013.5 |
| 20260506215110 | 55 | 360 | 6.0 | 13.0 | 0.00 | 0.61 | 0.23 | 59 | 1013.4 |
| 20260506214603 | 55 | 301 | 7.0 | 13.0 | 0.00 | 0.61 | 0.23 | 60 | 1013.4 |
| 20260506214100 | 55 | 343 | 5.0 | 13.0 | 0.00 | 0.61 | 0.23 | 60 | 1013.3 |
| 20260506213559 | 55 | 316 | 4.0 | 11.0 | 0.00 | 0.61 | 0.23 | 60 | 1013.2 |
| 20260506213112 | 55 | 341 | 4.0 | 11.0 | 0.00 | 0.61 | 0.23 | 62 | 1013.1 |
| 20260506212600 | 55 | 301 | 4.0 | 10.0 | 0.00 | 0.61 | 0.23 | 62 | 1013.0 |
| 20260506212103 | 55 | 341 | 4.0 | 8.0 | 0.00 | 0.61 | 0.23 | 63 | 1013.0 |
| 20260506211612 | 55 | 311 | 3.0 | 11.0 | 0.00 | 0.61 | 0.23 | 63 | 1013.0 |
| 20260506211100 | 55 | 344 | 6.0 | 11.0 | 0.00 | 0.61 | 0.23 | 62 | 1012.9 |
| 20260506210600 | 55 | 334 | 6.0 | 11.0 | 0.00 | 0.61 | 0.23 | 62 | 1013.0 |
| 20260506210100 | 55 | 360 | 3.0 | 10.0 | 0.00 | 0.61 | 0.23 | 61 | 1013.0 |
| 20260506205601 | 55 | 319 | 5.0 | 10.0 | 0.00 | 0.88 | 0.23 | 60 | 1013.0 |
| 20260506205101 | 55 | 324 | 5.0 | 13.0 | 0.00 | 0.88 | 0.23 | 62 | 1013.1 |
| 20260506204602 | 55 | 336 | 7.0 | 13.0 | 0.00 | 0.88 | 0.23 | 59 | 1013.0 |
| 20260506204059 | 55 | 351 | 5.0 | 11.0 | 0.00 | 0.88 | 0.23 | 60 | 1012.9 |
| 20260506203600 | 56 | 327 | 5.0 | 11.0 | 0.00 | 0.88 | 0.23 | 61 | 1013.0 |
| 20260506203103 | 56 | 352 | 3.0 | 11.0 | 0.00 | 0.88 | 0.23 | 62 | 1013.0 |
| 20260506202600 | 56 | 342 | 5.0 | 11.0 | 0.00 | 0.88 | 0.23 | 61 | 1013.0 |
| 20260506202101 | 56 | 9 | 5.0 | 13.0 | 0.00 | 0.88 | 0.23 | 62 | 1012.9 |
| 20260506201604 | 56 | 355 | 6.0 | 13.0 | 0.00 | 0.88 | 0.23 | 62 | 1012.8 |
| 20260506201100 | 56 | 323 | 5.0 | 13.0 | 0.00 | 0.88 | 0.23 | 63 | 1012.7 |
| 20260506200600 | 57 | 338 | 4.0 | 12.0 | 0.00 | 0.88 | 0.23 | 64 | 1012.6 |
| 20260506200101 | 56 | 326 | 6.0 | 12.0 | 0.00 | 0.88 | 0.23 | 63 | 1012.7 |
| 20260506195601 | 56 | 360 | 6.0 | 12.0 | 0.00 | 0.88 | 0.23 | 63 | 1012.7 |
| 20260506195100 | 56 | 360 | 7.0 | 12.0 | 0.00 | 0.88 | 0.23 | 64 | 1012.6 |
| 20260506194602 | 56 | 9 | 5.0 | 12.0 | 0.00 | 0.88 | 0.23 | 63 | 1012.8 |
| 20260506194103 | 56 | 324 | 6.0 | 12.0 | 0.00 | 0.88 | 0.23 | 63 | 1012.8 |
| 20260506193602 | 56 | 319 | 5.0 | 13.0 | 0.00 | 0.88 | 0.23 | 63 | 1012.8 |
| 20260506193102 | 56 | 360 | 6.0 | 13.0 | 0.00 | 0.88 | 0.23 | 62 | 1012.8 |
| 20260506192600 | 57 | 43 | 6.0 | 15.0 | 0.00 | 0.88 | 0.23 | 62 | 1012.6 |
| 20260506192102 | 57 | 52 | 8.0 | 17.0 | 0.00 | 0.88 | 0.23 | 62 | 1012.8 |
| 20260506191601 | 57 | 333 | 8.0 | 17.0 | 0.00 | 0.88 | 0.23 | 61 | 1012.7 |
| 20260506191103 | 57 | 340 | 7.0 | 15.0 | 0.00 | 0.88 | 0.23 | 60 | 1012.5 |
| 20260506190601 | 58 | 59 | 7.0 | 13.0 | 0.00 | 0.88 | 0.23 | 61 | 1012.5 |
| 20260506190100 | 58 | 337 | 5.0 | 12.0 | 0.00 | 0.88 | 0.23 | 62 | 1012.5 |
| 20260506185600 | 58 | 286 | 5.0 | 15.0 | 0.00 | 0.88 | 0.23 | 60 | 1012.4 |
| 20260506185100 | 58 | 331 | 8.0 | 15.0 | 0.00 | 0.88 | 0.23 | 61 | 1012.4 |
| 20260506184622 | 58 | 36 | 8.0 | 15.0 | 0.00 | 0.88 | 0.23 | 62 | 1012.3 |
| 20260506184100 | 58 | 35 | 7.0 | 13.0 | 0.00 | 0.88 | 0.23 | 62 | 1012.5 |
| 20260506183557 | 58 | 355 | 5.0 | 12.0 | 0.00 | 0.88 | 0.23 | 63 | 1012.5 |
| 20260506183056 | 58 | 360 | 4.0 | 12.0 | 0.00 | 0.88 | 0.23 | 63 | 1012.4 |
| 20260506182558 | 58 | 350 | 6.0 | 12.0 | 0.00 | 0.88 | 0.23 | 64 | 1012.5 |
| 20260506182058 | 58 | 338 | 4.0 | 9.0 | 0.00 | 0.88 | 0.23 | 63 | 1012.5 |
| 20260506181557 | 57 | 360 | 4.0 | 12.0 | 0.00 | 0.88 | 0.23 | 64 | 1012.6 |
| 20260506181059 | 58 | 355 | 6.0 | 12.0 | 0.00 | 0.88 | 0.23 | 63 | 1012.6 |
| 20260506180557 | 58 | 340 | 2.0 | 12.0 | 0.00 | 0.88 | 0.23 | 64 | 1012.7 |
| 20260506175559 | 57 | 355 | 1.0 | 12.0 | 0.00 | 0.88 | 0.23 | 63 | 1012.6 |
| 20260506175056 | 57 | 360 | 3.0 | 13.0 | 0.00 | 0.88 | 0.23 | 64 | 1012.6 |
| 20260506174556 | 57 | 360 | 4.0 | 13.0 | 0.00 | 0.88 | 0.23 | 64 | 1012.7 |
| 20260506174056 | 57 | 338 | 3.0 | 12.0 | 0.00 | 0.88 | 0.23 | 65 | 1012.7 |
| 20260506173556 | 57 | 45 | 5.0 | 11.0 | 0.00 | 0.88 | 0.23 | 63 | 1012.7 |
| 20260506173108 | 58 | 336 | 5.0 | 11.0 | 0.00 | 0.88 | 0.23 | 65 | 1012.7 |
| 20260506172556 | 57 | 326 | 4.0 | 11.0 | 0.00 | 0.88 | 0.23 | 66 | 1012.8 |
| 20260506172056 | 57 | 63 | 4.0 | 12.0 | 0.00 | 0.88 | 0.23 | 64 | 1012.9 |
| 20260506171609 | 57 | 332 | 5.0 | 13.0 | 0.00 | 0.88 | 0.23 | 64 | 1012.9 |
| 20260506171057 | 57 | 343 | 7.0 | 13.0 | 0.00 | 0.88 | 0.23 | 65 | 1012.8 |
| 20260506170556 | 57 | 343 | 4.0 | 14.0 | 0.00 | 0.88 | 0.23 | 64 | 1012.7 |
| 20260506165559 | 57 | 355 | 7.0 | 12.0 | 0.00 | 0.88 | 0.23 | 65 | 1012.8 |
| 20260506165056 | 57 | 360 | 3.0 | 12.0 | 0.00 | 0.88 | 0.23 | 68 | 1012.7 |
| 20260506164618 | 56 | 360 | 6.0 | 13.0 | 0.00 | 0.88 | 0.23 | 65 | 1012.8 |
| 20260506164056 | 56 | 26 | 7.0 | 13.0 | 0.00 | 0.88 | 0.23 | 66 | 1012.8 |
| 20260506163556 | 56 | 342 | 5.0 | 11.0 | 0.00 | 0.88 | 0.23 | 67 | 1012.8 |
| 20260506163106 | 56 | 86 | 2.0 | 11.0 | 0.00 | 0.88 | 0.23 | 65 | 1012.7 |
| 20260506162556 | 56 | 355 | 3.0 | 11.0 | 0.00 | 0.88 | 0.23 | 66 | 1012.6 |
| 20260506162056 | 55 | 22 | 2.0 | 10.0 | 0.00 | 0.88 | 0.23 | 68 | 1012.8 |
| 20260506161559 | 55 | 24 | 3.0 | 12.0 | 0.00 | 0.88 | 0.23 | 64 | 1013.0 |
| 20260506161056 | 55 | 355 | 3.0 | 12.0 | 0.00 | 0.88 | 0.23 | 67 | 1013.2 |
| 20260506160556 | 55 | 27 | 4.0 | 12.0 | 0.00 | 0.88 | 0.23 | 66 | 1013.2 |
| 20260506160111 | 54 | 352 | 4.0 | 11.0 | 0.00 | 0.88 | 0.23 | 68 | 1013.2 |
| 20260506155556 | 54 | 360 | 4.0 | 10.0 | 0.00 | 0.88 | 0.23 | 67 | 1013.2 |
| 20260506155056 | 54 | 360 | 5.0 | 10.0 | 0.00 | 0.88 | 0.23 | 67 | 1013.0 |
| 20260506154557 | 53 | 347 | 5.0 | 12.0 | 0.00 | 0.88 | 0.23 | 72 | 1012.7 |
| 20260506154059 | 53 | 317 | 4.0 | 12.0 | 0.00 | 0.88 | 0.23 | 70 | 1012.3 |
| 20260506153559 | 52 | 315 | 6.0 | 12.0 | 0.00 | 0.88 | 0.23 | 70 | 1012.4 |
| 20260506153103 | 52 | 336 | 4.0 | 11.0 | 0.00 | 0.88 | 0.23 | 71 | 1012.3 |
| 20260506152555 | 52 | 355 | 6.0 | 13.0 | 0.00 | 0.88 | 0.23 | 71 | 1012.3 |
| 20260506152056 | 51 | 25 | 7.0 | 13.0 | 0.00 | 0.88 | 0.23 | 69 | 1012.1 |
| 20260506151558 | 52 | 355 | 8.0 | 12.0 | 0.00 | 0.88 | 0.23 | 69 | 1012.2 |
| 20260506151056 | 51 | 27 | 4.0 | 12.0 | 0.00 | 0.88 | 0.23 | 69 | 1012.2 |
| 20260506150556 | 51 | 346 | 7.0 | 12.0 | 0.00 | 0.88 | 0.23 | 69 | 1012.3 |
| 20260506150055 | 51 | 17 | 7.0 | 12.0 | 0.00 | 0.88 | 0.23 | 67 | 1012.0 |
| 20260506145558 | 51 | 41 | 4.0 | 11.0 | 0.00 | 0.88 | 0.23 | 70 | 1011.9 |
| 20260506145056 | 51 | 24 | 3.0 | 13.0 | 0.00 | 0.88 | 0.23 | 70 | 1011.6 |
| 20260506144556 | 51 | 352 | 7.0 | 13.0 | 0.00 | 0.88 | 0.23 | 70 | 1011.9 |
| 20260506144056 | 50 | 343 | 6.0 | 12.0 | 0.00 | 0.88 | 0.23 | 73 | 1011.9 |
| 20260506143556 | 50 | 18 | 5.0 | 13.0 | 0.00 | 0.88 | 0.23 | 75 | 1011.8 |
| 20260506143058 | 49 | 345 | 8.0 | 13.0 | 0.00 | 0.88 | 0.23 | 75 | 1012.1 |
| 20260506142556 | 49 | 11 | 6.0 | 12.0 | 0.00 | 0.88 | 0.23 | 76 | 1012.1 |
| 20260506142055 | 49 | 14 | 7.0 | 12.0 | 0.00 | 0.88 | 0.23 | 76 | 1012.1 |
| 20260506141611 | 48 | 360 | 6.0 | 12.0 | 0.00 | 0.88 | 0.23 | 78 | 1012.0 |
| 20260506141057 | 48 | 336 | 6.0 | 13.0 | 0.00 | 0.88 | 0.23 | 78 | 1011.8 |
| 20260506140558 | 48 | 351 | 7.0 | 13.0 | 0.00 | 0.88 | 0.23 | 79 | 1011.8 |
| 20260506140057 | 48 | 309 | 5.0 | 10.0 | 0.00 | 0.88 | 0.23 | 79 | 1011.6 |
| 20260506135556 | 48 | 348 | 6.0 | 14.0 | 0.00 | 0.88 | 0.23 | 80 | 1011.6 |
| 20260506135056 | 48 | 11 | 6.0 | 14.0 | 0.00 | 0.88 | 0.23 | 79 | 1011.6 |
| 20260506134557 | 48 | 9 | 7.0 | 13.0 | 0.00 | 0.88 | 0.23 | 80 | 1011.3 |
| 20260506134056 | 48 | 350 | 7.0 | 13.0 | 0.00 | 0.88 | 0.23 | 81 | 1011.2 |
| 20260506133559 | 47 | 15 | 4.0 | 12.0 | 0.00 | 0.88 | 0.23 | 82 | 1011.0 |
| 20260506133106 | 47 | 344 | 5.0 | 12.0 | 0.00 | 0.88 | 0.23 | 82 | 1011.1 |
| 20260506132556 | 47 | 350 | 5.0 | 12.0 | 0.00 | 0.88 | 0.23 | 83 | 1011.1 |
| 20260506132056 | 47 | 350 | 2.0 | 11.0 | 0.00 | 0.88 | 0.23 | 84 | 1011.2 |
| 20260506131558 | 46 | 338 | 4.0 | 10.0 | 0.00 | 0.88 | 0.23 | 85 | 1011.0 |
| 20260506131057 | 46 | 352 | 4.0 | 11.0 | 0.00 | 0.88 | 0.23 | 84 | 1011.0 |
| 20260506130556 | 46 | 337 | 4.0 | 14.0 | 0.00 | 0.88 | 0.23 | 84 | 1010.8 |
| 20260506130057 | 45 | 351 | 8.0 | 14.0 | 0.00 | 0.88 | 0.23 | 84 | 1010.9 |
| 20260506125556 | 45 | 348 | 8.0 | 12.0 | 0.00 | 0.88 | 0.23 | 84 | 1010.8 |
| 20260506125056 | 45 | 351 | 5.0 | 13.0 | 0.00 | 0.88 | 0.23 | 85 | 1010.9 |
| 20260506124557 | 45 | 351 | 8.0 | 13.0 | 0.00 | 0.88 | 0.23 | 85 | 1011.1 |
| 20260506124056 | 45 | 9 | 8.0 | 13.0 | 0.00 | 0.88 | 0.23 | 85 | 1011.0 |
| 20260506123556 | 45 | 339 | 5.0 | 11.0 | 0.00 | 0.88 | 0.23 | 86 | 1010.9 |
| 20260506123056 | 45 | 9 | 4.0 | 13.0 | 0.00 | 0.88 | 0.23 | 87 | 1010.7 |
| 20260506122556 | 45 | 336 | 8.0 | 13.0 | 0.00 | 0.88 | 0.23 | 88 | 1010.7 |
| 20260506122100 | 45 | 350 | 5.0 | 13.0 | 0.00 | 0.88 | 0.23 | 89 | 1010.6 |
| 20260506121613 | 45 | 337 | 6.0 | 13.0 | 0.00 | 0.88 | 0.23 | 89 | 1010.3 |
| 20260506121100 | 45 | 9 | 7.0 | 13.0 | 0.00 | 0.88 | 0.23 | 90 | 1010.2 |
| 20260506120600 | 45 | 342 | 5.0 | 11.0 | 0.00 | 0.88 | 0.23 | 91 | 1009.8 |
| 20260506120120 | 45 | 340 | 7.0 | 11.0 | 0.00 | 0.88 | 0.23 | 91 | 1009.7 |
| 20260506115600 | 44 | 342 | 7.0 | 12.0 | 0.00 | 0.88 | 0.23 | 91 | 1009.8 |
| 20260506115059 | 44 | 350 | 4.0 | 12.0 | 0.00 | 0.88 | 0.23 | 92 | 1009.8 |
| 20260506114559 | 44 | 336 | 6.0 | 12.0 | 0.00 | 0.88 | 0.23 | 91 | 1009.7 |
| 20260506114059 | 44 | 344 | 5.0 | 9.0 | 0.00 | 0.88 | 0.23 | 92 | 1009.9 |
| 20260506113559 | 44 | 352 | 1.0 | 9.0 | 0.00 | 0.88 | 0.23 | 92 | 1009.9 |
| 20260506113109 | 44 | 338 | 5.0 | 12.0 | 0.00 | 0.88 | 0.23 | 92 | 1009.8 |
| 20260506112601 | 44 | 348 | 6.0 | 13.0 | 0.00 | 0.88 | 0.23 | 92 | 1010.0 |
| 20260506112056 | 44 | 352 | 6.0 | 13.0 | 0.00 | 0.88 | 0.23 | 92 | 1009.9 |
| 20260506111559 | 44 | 352 | 6.0 | 12.0 | 0.00 | 0.88 | 0.23 | 92 | 1010.0 |
| 20260506111100 | 44 | 331 | 6.0 | 12.0 | 0.00 | 0.88 | 0.23 | 92 | 1009.7 |
| 20260506110603 | 44 | 17 | 6.0 | 10.0 | 0.00 | 0.88 | 0.23 | 93 | 1009.2 |
| 20260506110101 | 44 | 328 | 3.0 | 10.0 | 0.00 | 0.88 | 0.23 | 93 | 1008.5 |
| 20260506105603 | 44 | 344 | 4.0 | 12.0 | 0.00 | 0.88 | 0.23 | 93 | 1008.5 |
| 20260506105059 | 44 | 41 | 5.0 | 13.0 | 0.00 | 0.88 | 0.23 | 93 | 1008.5 |
| 20260506104559 | 44 | 348 | 7.0 | 13.0 | 0.00 | 0.88 | 0.23 | 93 | 1008.6 |
| 20260506104100 | 44 | 347 | 7.0 | 12.0 | 0.01 | 0.88 | 0.23 | 93 | 1008.9 |
| 20260506103559 | 44 | 338 | 5.0 | 12.0 | 0.01 | 0.88 | 0.23 | 93 | 1008.5 |
| 20260506103101 | 44 | 11 | 5.0 | 12.0 | 0.01 | 0.88 | 0.23 | 93 | 1008.6 |
| 20260506102600 | 44 | 352 | 7.0 | 12.0 | 0.01 | 0.88 | 0.23 | 93 | 1008.9 |
| 20260506102101 | 44 | 340 | 7.0 | 11.0 | 0.01 | 0.88 | 0.23 | 93 | 1008.7 |
| 20260506101603 | 44 | 352 | 6.0 | 11.0 | 0.01 | 0.88 | 0.23 | 93 | 1008.6 |
| 20260506101059 | 44 | 337 | 6.0 | 10.0 | 0.01 | 0.88 | 0.23 | 93 | 1008.6 |
| 20260506100600 | 44 | 343 | 3.0 | 9.0 | 0.01 | 0.88 | 0.23 | 93 | 1008.4 |
| 20260506095600 | 44 | 352 | 5.0 | 9.0 | 0.01 | 0.88 | 0.23 | 93 | 1008.2 |
| 20260506095100 | 44 | 352 | 3.0 | 8.0 | 0.01 | 0.88 | 0.23 | 93 | 1007.9 |
| 20260506094602 | 44 | 348 | 3.0 | 11.0 | 0.01 | 0.88 | 0.23 | 93 | 1007.6 |
| 20260506094059 | 44 | 32 | 2.0 | 14.0 | 0.00 | 0.87 | 0.22 | 93 | 1007.6 |
| 20260506093600 | 44 | 344 | 8.0 | 14.0 | 0.00 | 0.87 | 0.22 | 93 | 1008.0 |
| 20260506093101 | 44 | 15 | 6.0 | 11.0 | 0.01 | 0.87 | 0.22 | 93 | 1008.0 |
| 20260506092600 | 44 | 349 | 4.0 | 12.0 | 0.01 | 0.87 | 0.22 | 93 | 1007.7 |
| 20260506092100 | 44 | 10 | 4.0 | 12.0 | 0.02 | 0.87 | 0.22 | 93 | 1007.7 |
| 20260506091558 | 44 | 349 | 5.0 | 13.0 | 0.02 | 0.87 | 0.22 | 93 | 1007.9 |
| 20260506091059 | 44 | 18 | 5.0 | 13.0 | 0.03 | 0.87 | 0.22 | 93 | 1007.9 |
| 20260506090559 | 44 | 11 | 5.0 | 13.0 | 0.03 | 0.87 | 0.22 | 93 | 1008.1 |
| 20260506090059 | 44 | 330 | 6.0 | 15.0 | 0.04 | 0.87 | 0.22 | 93 | 1008.1 |
| 20260506085556 | 44 | 360 | 9.0 | 15.0 | 0.05 | 0.87 | 0.22 | 93 | 1008.0 |
| 20260506085059 | 44 | 340 | 7.0 | 13.0 | 0.05 | 0.87 | 0.22 | 93 | 1007.8 |
| 20260506084600 | 44 | 347 | 7.0 | 15.0 | 0.06 | 0.87 | 0.22 | 93 | 1007.8 |
| 20260506084100 | 44 | 352 | 5.0 | 16.0 | 0.06 | 0.87 | 0.22 | 93 | 1007.7 |
| 20260506083559 | 44 | 346 | 7.0 | 17.0 | 0.06 | 0.87 | 0.22 | 93 | 1007.8 |
| 20260506083100 | 44 | 351 | 9.0 | 17.0 | 0.05 | 0.86 | 0.21 | 92 | 1007.8 |
| 20260506082559 | 44 | 340 | 11.0 | 17.0 | 0.05 | 0.86 | 0.21 | 92 | 1008.0 |
| 20260506082103 | 44 | 330 | 10.0 | 16.0 | 0.05 | 0.85 | 0.20 | 93 | 1008.1 |
| 20260506081605 | 45 | 25 | 9.0 | 16.0 | 0.05 | 0.85 | 0.20 | 93 | 1008.0 |
| 20260506081100 | 45 | 360 | 10.0 | 16.0 | 0.04 | 0.84 | 0.19 | 93 | 1007.9 |
| 20260506080603 | 45 | 334 | 10.0 | 16.0 | 0.04 | 0.84 | 0.19 | 92 | 1007.8 |
| 20260506080112 | 45 | 344 | 10.0 | 17.0 | 0.04 | 0.83 | 0.18 | 93 | 1007.6 |
| 20260506073105 | 45 | 9 | 5.0 | 11.0 | 0.04 | 0.81 | 0.16 | 93 | 1007.5 |
| 20260506072557 | 45 | 340 | 5.0 | 15.0 | 0.05 | 0.81 | 0.16 | 93 | 1007.3 |
| 20260506072057 | 45 | 32 | 6.0 | 15.0 | 0.04 | 0.80 | 0.15 | 92 | 1007.2 |
| 20260506071601 | 45 | 11 | 6.0 | 12.0 | 0.05 | 0.80 | 0.15 | 93 | 1007.2 |
| 20260506071057 | 45 | 29 | 6.0 | 12.0 | 0.06 | 0.80 | 0.15 | 93 | 1007.1 |
| 20260506070556 | 45 | 21 | 6.0 | 15.0 | 0.06 | 0.80 | 0.15 | 92 | 1007.2 |
| 20260506070116 | 45 | 29 | 6.0 | 15.0 | 0.05 | 0.79 | 0.14 | 93 | 1007.0 |
| 20260506062100 | 45 | 44 | 7.0 | 16.0 | 0.06 | 0.76 | 0.11 | 92 | 1007.5 |
| 20260506061602 | 45 | 352 | 7.0 | 17.0 | 0.05 | 0.75 | 0.10 | 92 | 1007.5 |
| 20260506061057 | 46 | 343 | 9.0 | 17.0 | 0.05 | 0.74 | 0.09 | 92 | 1007.5 |
| 20260506060556 | 46 | 350 | 7.0 | 17.0 | 0.05 | 0.74 | 0.09 | 92 | 1007.6 |
| 20260506051059 | 47 | 360 | 5.0 | 13.0 | 0.04 | 0.69 | 0.04 | 93 | 1007.8 |
| 20260506050600 | 47 | 41 | 4.0 | 14.0 | 0.04 | 0.69 | 0.04 | 92 | 1007.4 |
| 20260506050112 | 47 | 23 | 7.0 | 14.0 | 0.03 | 0.68 | 0.03 | 92 | 1007.6 |
| 20260506045057 | 47 | 340 | 3.0 | 9.0 | 0.03 | 0.68 | 0.03 | 92 | 1007.5 |
| 20260506044603 | 48 | 352 | 4.0 | 12.0 | 0.01 | 0.66 | 0.01 | 92 | 1007.6 |
| 20260506044057 | 48 | 19 | 5.0 | 12.0 | 0.01 | 0.66 | 0.01 | 92 | 1007.7 |
| 20260506043558 | 48 | 26 | 4.0 | 12.0 | 0.00 | 0.65 | 0.00 | 92 | 1007.8 |
| 20260506043059 | 49 | 24 | 5.0 | 12.0 | 0.00 | 0.65 | 0.00 | 92 | 1007.9 |
| 20260506042556 | 49 | 329 | 5.0 | 10.0 | 0.00 | 0.65 | 0.00 | 92 | 1007.7 |
| 20260506042102 | 49 | 352 | 3.0 | 7.0 | 0.00 | 0.65 | 0.00 | 92 | 1007.5 |
| 20260506041600 | 49 | 9 | 2.0 | 6.0 | 0.01 | 0.65 | 0.00 | 92 | 1007.6 |
| 20260506041059 | 49 | 350 | 2.0 | 8.0 | 0.01 | 0.65 | 0.00 | 92 | 1007.7 |
| 20260506040559 | 49 | 74 | 2.0 | 9.0 | 0.01 | 0.65 | 0.00 | 92 | 1007.6 |
| 20260506040101 | 49 | 78 | 3.0 | 9.0 | 0.02 | 0.65 | 0.00 | 92 | 1007.5 |
| 20260506035559 | 49 | 10 | 3.0 | 9.0 | 0.03 | 0.65 | 0.65 | 92 | 1007.5 |
| 20260506035059 | 49 | 48 | 3.0 | 9.0 | 0.04 | 0.65 | 0.65 | 92 | 1007.7 |
| 20260506034559 | 49 | 17 | 4.0 | 9.0 | 0.06 | 0.65 | 0.65 | 92 | 1007.7 |
| 20260506034057 | 49 | 80 | 2.0 | 8.0 | 0.07 | 0.65 | 0.65 | 92 | 1007.6 |
| 20260506033558 | 49 | 55 | 3.0 | 11.0 | 0.08 | 0.65 | 0.65 | 92 | 1007.8 |
| 20260506033105 | 49 | 68 | 4.0 | 11.0 | 0.09 | 0.65 | 0.65 | 92 | 1007.9 |
| 20260506032558 | 49 | 24 | 4.0 | 14.0 | 0.09 | 0.65 | 0.65 | 92 | 1007.9 |
| 20260506032056 | 49 | 341 | 5.0 | 15.0 | 0.09 | 0.65 | 0.65 | 92 | 1007.8 |
| 20260506031602 | 49 | 11 | 6.0 | 15.0 | 0.08 | 0.64 | 0.64 | 92 | 1007.8 |
| 20260506031100 | 50 | 344 | 5.0 | 11.0 | 0.08 | 0.64 | 0.64 | 92 | 1008.3 |
| 20260506030559 | 50 | 352 | 4.0 | 14.0 | 0.08 | 0.64 | 0.64 | 91 | 1008.5 |
| 20260506030114 | 50 | 339 | 5.0 | 16.0 | 0.08 | 0.63 | 0.63 | 91 | 1008.3 |
| 20260506025559 | 50 | 345 | 8.0 | 16.0 | 0.07 | 0.62 | 0.62 | 90 | 1008.7 |
| 20260506025056 | 50 | 336 | 10.0 | 18.0 | 0.07 | 0.61 | 0.61 | 90 | 1008.7 |
| 20260506024559 | 51 | 32 | 8.0 | 18.0 | 0.06 | 0.58 | 0.58 | 90 | 1008.7 |
| 20260506024059 | 52 | 334 | 10.0 | 18.0 | 0.06 | 0.58 | 0.58 | 89 | 1008.4 |
| 20260506023559 | 54 | 344 | 5.0 | 10.0 | 0.05 | 0.57 | 0.57 | 88 | 1008.6 |
| 20260506023059 | 56 | 352 | 5.0 | 10.0 | 0.05 | 0.56 | 0.56 | 90 | 1008.3 |
| 20260506022558 | 57 | 289 | 2.0 | 6.0 | 0.06 | 0.56 | 0.56 | 92 | 1008.1 |
| 20260506022056 | 58 | 238 | 3.0 | 9.0 | 0.06 | 0.56 | 0.56 | 92 | 1007.9 |
| 20260506021607 | 58 | 212 | 2.0 | 9.0 | 0.07 | 0.56 | 0.56 | 92 | 1007.8 |
| 20260506021056 | 58 | 211 | 3.0 | 9.0 | 0.08 | 0.56 | 0.56 | 92 | 1007.7 |
| 20260506020559 | 58 | 225 | 3.0 | 6.0 | 0.08 | 0.56 | 0.56 | 92 | 1007.8 |
| 20260506020100 | 58 | 194 | 2.0 | 7.0 | 0.08 | 0.55 | 0.55 | 92 | 1007.8 |
| 20260506015600 | 58 | 234 | 2.0 | 7.0 | 0.08 | 0.55 | 0.55 | 92 | 1007.8 |
| 20260506015058 | 58 | 242 | 2.0 | 5.0 | 0.08 | 0.54 | 0.54 | 92 | 1007.9 |